{"data":{"norad_id":45663,"intl_designator":"2020-035G","name":"STARLINK-1446","alt_names":[],"object_type":"PAYLOAD","status":"ACTIVE","operator":null,"country":"US","launch_date":"2020-06-04","launch_site_code":"AFETR","launch_vehicle":null,"mission":null,"orbit_class":"UNKNOWN","rcs_meters":null,"size_class":null,"mass_kg":null,"dimensions":null,"purposes":["comms"],"wikipedia_slug":null,"has_3d_model":false,"image_url":null,"decayed_at":null,"tle_current":{"epoch":"2026-09-19T04:04:18.858144Z","epoch_age_seconds":133164,"freshness":"FRESH","line1":"1 45663U 20035G   26262.16966271  .00029762  00000+0  46349-3 0  9994","line2":"2 45663  53.0170 153.0783 0003722 129.5757 230.5582 15.53654945349647","mean_motion":15.53654945,"eccentricity":0.0003722,"inclination_deg":53.017,"raan_deg":153.0783,"arg_perigee_deg":129.5757,"mean_anomaly_deg":230.5582,"bstar":0.00046349,"rev_number":34964,"period_min":92.68467265748,"perigee_km":403.54027865363,"apogee_km":408.5904388895,"semimajor_km":6784.2023587716,"source":"CELESTRAK","updated_at":"2026-09-20T09:00:38.449942Z"}}}